TimeCAT,TemperatureF,Dew PointF,Humidity,Sea Level PressureIn,VisibilityMPH,Wind Direction,Wind SpeedMPH,Gust SpeedMPH,PrecipitationIn,Events,Conditions,WindDirDegrees,DateUTC
12:00 AM,64.4,57.2,77,30.18,-9999.0,ESE,6.9,-,N/A,,Clear,110,2012-11-18 22:00:00
1:00 AM,64.4,55.4,73,30.15,-9999.0,ESE,6.9,-,N/A,,Clear,110,2012-11-18 23:00:00
2:00 AM,63,56,73,,16,ESE,6.9,,,,,110,2012-11-19 00:00:00
2:00 AM,62.6,57.2,82,30.15,-9999.0,ESE,6.9,-,N/A,,Clear,110,2012-11-19 00:00:00
3:00 AM,60.8,57.2,88,30.15,-9999.0,ENE,8.1,-,N/A,,Clear,60,2012-11-19 01:00:00
4:00 AM,62.6,57.2,82,30.15,-9999.0,ENE,8.1,-,N/A,,Clear,60,2012-11-19 02:00:00
5:00 AM,60.8,57.2,88,30.15,-9999.0,ENE,6.9,-,N/A,,Clear,60,2012-11-19 03:00:00
6:00 AM,62.6,59.0,88,30.15,-9999.0,ENE,5.8,-,N/A,,Clear,60,2012-11-19 04:00:00
7:00 AM,66.2,62.6,88,30.18,6.2,ENE,10.4,-,N/A,,Mostly Cloudy,60,2012-11-19 05:00:00
8:00 AM,68,62,74,,9,ENE,8.1,,,,Haze,70,2012-11-19 06:00:00
8:00 AM,68.0,60.8,78,30.21,6.2,ENE,8.1,-,N/A,,Mostly Cloudy,70,2012-11-19 06:00:00
9:00 AM,73.4,62.6,69,30.21,6.2,ENE,9.2,-,N/A,,Mostly Cloudy,70,2012-11-19 07:00:00
10:00 AM,75.2,60.8,61,30.21,6.2,NE,8.1,-,N/A,,Mostly Cloudy,40,2012-11-19 08:00:00
11:00 AM,60.8,57.2,88,30.18,6.2,NNE,9.2,-,N/A,,Mostly Cloudy,30,2012-11-19 09:00:00
12:00 PM,78.8,59.0,51,30.18,6.2,NNE,10.4,-,N/A,,Mostly Cloudy,20,2012-11-19 10:00:00
1:00 PM,80.6,59.0,48,30.15,6.2,NE,9.2,-,N/A,,Mostly Cloudy,40,2012-11-19 11:00:00
2:00 PM,82,57,32,,19,NNE,6.9,,,,Scattered Clouds,30,2012-11-19 12:00:00
2:00 PM,82.4,57.2,42,30.12,6.2,NNE,5.8,-,N/A,,Mostly Cloudy,30,2012-11-19 12:00:00
3:00 PM,84.2,57.2,40,30.12,6.2,NE,6.9,-,N/A,,Mostly Cloudy,50,2012-11-19 13:00:00
4:00 PM,84.2,57.2,40,30.09,6.2,NE,8.1,-,N/A,,Mostly Cloudy,40,2012-11-19 14:00:00
5:00 PM,82.4,57.2,42,30.09,6.2,ENE,8.1,-,N/A,,Mostly Cloudy,70,2012-11-19 15:00:00
6:00 PM,60.8,59.0,94,30.09,-9999.0,ENE,6.9,-,N/A,,Clear,70,2012-11-19 16:00:00
7:00 PM,73.4,55.4,53,30.12,6.2,East,6.9,-,N/A,,Mostly Cloudy,90,2012-11-19 17:00:00
8:00 PM,71.6,55.4,57,30.12,6.2,East,6.9,-,N/A,,Mostly Cloudy,80,2012-11-19 18:00:00
9:00 PM,71.6,53.6,53,30.15,-9999.0,ENE,9.2,-,N/A,,Clear,70,2012-11-19 19:00:00